This demonstration page uses our WeatherBlox Daily Observations layout. Learn more.

Left ArrowRight Arrow

Hourly Observations for July 27, 2018

Temp ( °F °C ) Dew Point ( °F °C ) Humidity (%) Winds ( mph kmh ) Pressure ( in mb ) Visibility ( mi km ) Precip ( " mm )
12:53 am 00:53 Partly Cloudy with Smoke 84 28.9 65 18.3 53 53 NE 3 6 29.84 1011 10 16 0.00 0.00
1:53 am 01:53 Mostly Clear with Smoke 84 28.9 60 15.6 44 44 N 3 6 29.83 1010 9 14 0.00 0.00
2:53 am 02:53 Mostly Clear with Smoke 82 27.8 58 14.4 44 44 NNE 3 6 29.83 1010 8 13 0.00 0.00
3:53 am 03:53 Clear with Smoke 80 26.7 56 13.3 44 44 Calm 29.83 1010 8 13 0.00 0.00
4:53 am 04:53 Clear with Smoke 77 25 59 15 54 54 Calm 29.82 1010 8 13 0.00 0.00
5:53 am 05:53 Clear with Smoke 73 22.8 59 15 62 62 ESE 3 6 29.83 1010 8 13 0.00 0.00
6:53 am 06:53 Sunny with Smoke 74 23.3 60 15.6 62 62 Calm 29.85 1011 7 11 0.00 0.00
7:53 am 07:53 Sunny with Smoke 76 24.4 61 16.1 60 60 Calm 29.86 1011 7 11 0.00 0.00
8:53 am 08:53 Sunny with Smoke 82 27.8 56 13.3 41 41 Calm 29.86 1011 7 11 0.00 0.00
9:53 am 09:53 Hazy 88 31.1 51 10.6 28 28 NE 5 7 29.85 1011 6 10 0.00 0.00
10:53 am 10:53 Hazy 93 33.9 50 10 23 23 VRB 5 7 29.85 1011 5 8 0.00 0.00
11:53 am 11:53 Hazy 97 36.1 49 9.4 20 20 undefined N/A 29.83 1010 4 6 0.00 0.00
12:53 pm 12:53 Hazy 98 36.7 55 12.8 24 24 SSW 8 13 29.82 1010 5 8 0.00 0.00
1:53 pm 13:53 Hazy 100 37.8 53 11.7 21 21 SSE 7 11 29.80 1009 5 8 0.00 0.00
2:53 pm 14:53 Mostly Cloudy with Haze 102 38.9 54 12.2 20 20 SSE 12 19 29.79 1009 6 10 0.00 0.00
3:53 pm 15:53 Hazy 102 38.9 57 13.9 23 23 SE 14 22 29.77 1008 6 10 0.00 0.00
4:53 pm 16:53 Hazy 100 37.8 56 13.3 23 23 SSE 13 20 29.75 1008 6 10 0.00 0.00
5:53 pm 17:53 Cloudy with Haze 98 36.7 57 13.9 25 25 S 9 15 29.75 1008 6 10 0.00 0.00
6:53 pm 18:53 Mostly Cloudy with Haze 96 35.6 58 14.4 28 28 SSE 6 9 29.75 1008 6 10 0.00 0.00
7:53 pm 19:53 Cloudy with Haze 92 33.3 57 13.9 31 31 E 5 7 29.77 1008 4 6 0.00 0.00
8:53 pm 20:53 Cloudy with Smoke 89 31.7 57 13.9 34 34 E 3 6 29.78 1009 7 11 0.00 0.00
9:53 pm 21:53 Cloudy 87 30.6 60 15.6 40 40 SSE 8 13 29.80 1009 8 13 0.00 0.00
10:53 pm 22:53 Cloudy 87 30.6 57 13.9 36 36 N 3 6 29.80 1009 7 11 0.00 0.00
11:53 pm 23:53 Cloudy 84 28.9 57 13.9 40 40 N 3 6 29.82 1010 7 11 0.00 0.00

Powered by AerisWeather